Current weather by "City, St" or "zip code"  
 
Advertise Here

Current Conditions: Maxwell Air Force Base / Montgomery, AL

Fair


70.0 F

Last Updated on May 30 2020, 1:56 am CDT
Humidity: 93%
Wind Speed: N 0.0 mph
Barometer 30.03 in
Dewpoint: 68.2 F
Visibility: 10.00 mi
Precip: --
Heat Index: NA
Wind Chill: NA
Current conditions at:

Maxwell Air Force Base / Montgomery, AL (KMXF)

Lat: 32.38333 Lon: 86.36667

Local Radar Image active severe weather and emergency alerts image image weather storm and storm spotter reports image weather observation monitoring service image
Local
Radar
Active
Alerts
Storm Reports Obs
Monitoring

Sign-up For Email & Text Message Weather Alert Notification Services


Advertise Here

Observation History for Maxwell Air Force Base / Montgomery, AL


Time Wind
(mph)
Vis
(mi)
Weather Precip (in) Temperature (F) Relative
Humidity
Wind
Chill
(F)
Heat
Index
(F)
Pressure
Air Dwpt altimeter
(in)
sea level
(mb)
Rmks
1:56 am CDT N 0.0 10.00 Fair -- 70.0 68.2 93% NA NA 30.03 1017.0
12:56 am CDT N 0.0 10.00 A Few Clouds -- 71.0 68.9 92% NA NA 30.04 1017.4
11:56 pm CDT N 0.0 10.00 Partly Cloudy -- 72.0 69.1 91% NA NA 30.04 1017.4
10:56 pm CDT N 0.0 10.00 Fair -- 73.0 69.6 89% NA NA 30.03 1017.0
9:56 pm CDT N 0.0 10.00 Fair -- 74.0 70.3 89% NA NA 30.02 1016.7
8:56 pm CDT N 0.0 10.00 Fair -- 76.0 69.8 81% NA NA 30.01 1016.4
7:56 pm CDT N 0.0 10.00 Fair -- 81.0 68.4 66% NA 84 30.00 1016.0
6:56 pm CDT W 3.5 10.00 Fair -- 84.0 66.7 56% NA 86 29.98 1015.3
5:56 pm CDT W 5.8 10.00 Fair -- 86.0 66.6 53% NA 89 29.98 1015.3
4:56 pm CDT N 0.0 10.00 Fair -- 87.0 64.4 47% NA 88 29.99 1015.7
3:56 pm CDT SW 5.8 10.00 Fair -- 87.0 63.3 46% NA 88 29.99 1015.7
2:56 pm CDT S 4.6 10.00 A Few Clouds -- 86.0 67.1 53% NA 89 30.00 1016.0
1:56 pm CDT W 4.6 10.00 Partly Cloudy -- 85.0 67.1 56% NA 88 30.00 1016.0
12:56 pm CDT N 0.0 10.00 Mostly Cloudy -- 83.0 66.9 58% NA 85 30.01 1016.3
11:56 am CDT W 3.5 10.00 Partly Cloudy -- 82.0 68.5 63% NA 85 30.03 1017.0
10:56 am CDT S 3.5 10.00 Mostly Cloudy -- 81.0 68.5 66% NA 84 30.04 1017.4
9:56 am CDT SW 4.6 10.00 Partly Cloudy -- 80.0 68.2 68% NA 83 30.05 1017.7
8:56 am CDT S 4.6 10.00 A Few Clouds -- 78.0 69.8 75% NA NA 30.05 1017.7
7:56 am CDT N 0.0 10.00 Mostly Cloudy -- 76.0 69.3 81% NA NA 30.05 1017.7
6:56 am CDT N 0.0 10.00 Overcast -- 72.0 68.7 89% NA NA 30.04 1017.4
5:56 am CDT N 0.0 9.00 Overcast -- 70.0 67.8 92% NA NA 30.03 1017.0
4:56 am CDT N 0.0 10.00 Mostly Cloudy -- 70.0 67.3 91% NA NA 30.01 1016.3
3:56 am CDT N 0.0 10.00 A Few Clouds -- 71.0 68.2 91% NA NA 30.00 1016.0
2:56 am CDT S 3.5 10.00 Mostly Cloudy -- 71.0 68.0 92% NA NA 30.00 1016.0

Regional Weather Observation


Montgomery, Dannelly Field, AL (KMGM)

Mostly Cloudy
73.0 F

Alexander City, Thomas C Russell Field Airport, AL (KALX)

Fair
66.0 F

Alabaster, Shelby County Airport, AL (KEET)

Partly Cloudy
69.0 F

Mac Crenshaw Memorial Airport, AL (KPRN)

Fair
71.0 F

Troy, Troy Municipal Airport, AL (KTOI)

Mostly Cloudy
72.0 F

Auburn-Opelika Airport, AL (KAUO)

Fair
71.0 F